Powrót do katalogu

FENGYUN 1C DEB

AktywnySSO
NORAD 31515·DEBRIS·🇨🇳 China

Wystrzelony May 10, 1999 z Taiyuan Satellite Launch Center

Loading…

Następne Przeloty (najbliższe 24 godziny)

TLE

ŚwieżeSource: Space-Track

Epoka: Sep 12, 2026, 01:53 UTC

1 31515U 99025BXE 26255.07902699  .00000826  00000-0  47459-3 0  9990
2 31515  98.8896 343.9396 0054873  93.3065 267.4385 14.11300192622181

Śledź FENGYUN 1C DEB w czasie rzeczywistym z AllMySat

Download on the App Store